| time (UTC) | temp C | wind direction | speed KPH | gust KPH | rain 1hr cm | rain 24hr cm | rain mn cm | humidity % | barometer mb |
| 20260507010037 | 19 | 0 | 0.0 | 0.0 | 0.00 | 0.00 | 0.00 | 81 | 1010.2 |
| 20260507004532 | 20 | 0 | 0.0 | 0.0 | 0.00 | 0.00 | 0.00 | 81 | 1010.0 |
| 20260507003037 | 20 | 0 | 0.0 | 0.0 | 0.00 | 0.00 | 0.00 | 80 | 1010.0 |
| 20260507001535 | 20 | 0 | 0.0 | 0.0 | 0.00 | 0.00 | 0.00 | 79 | 1009.6 |
| 20260507000037 | 20 | 0 | 0.0 | 0.0 | 0.00 | 0.00 | 0.00 | 78 | 1009.5 |
| 20260506234534 | 21 | 0 | 0.0 | 0.0 | 0.00 | 0.00 | 0.00 | 77 | 1009.4 |
| 20260506233032 | 21 | 0 | 0.0 | 0.0 | 0.00 | 0.00 | 0.00 | 76 | 1009.5 |
| 20260506231537 | 21 | 0 | 0.0 | 0.0 | 0.00 | 0.00 | 0.00 | 76 | 1009.3 |
| 20260506230035 | 21 | 0 | 0.0 | 0.0 | 0.00 | 0.00 | 0.00 | 75 | 1009.5 |
| 20260506224532 | 21 | 0 | 0.0 | 0.0 | 0.00 | 0.00 | 0.00 | 75 | 1009.5 |
| 20260506223034 | 21 | 0 | 0.0 | 0.0 | 0.00 | 0.00 | 0.00 | 74 | 1009.3 |
| 20260506221533 | 21 | 0 | 0.0 | 0.0 | 0.00 | 0.00 | 0.00 | 74 | 1009.4 |
| 20260506220034 | 21 | 0 | 0.0 | 0.0 | 0.00 | 0.00 | 0.00 | 74 | 1009.3 |
| 20260506214532 | 21 | 0 | 0.0 | 0.0 | 0.00 | 0.00 | 0.00 | 74 | 1009.1 |
| 20260506213036 | 21 | 0 | 0.0 | 0.0 | 0.00 | 0.00 | 0.00 | 75 | 1009.2 |
| 20260506211533 | 21 | 0 | 0.0 | 14.5 | 0.00 | 0.00 | 0.00 | 75 | 1009.1 |
| 20260506210038 | 21 | 0 | 0.0 | 0.0 | 0.00 | 0.00 | 0.00 | 75 | 1009.0 |
| 20260506204534 | 21 | 0 | 0.0 | 11.3 | 0.00 | 0.00 | 0.00 | 75 | 1009.0 |
| 20260506203041 | 21 | 0 | 0.0 | 16.1 | 0.00 | 0.00 | 0.00 | 75 | 1008.7 |
| 20260506201534 | 21 | 0 | 1.6 | 19.3 | 0.00 | 0.00 | 0.00 | 73 | 1008.8 |
| 20260506200044 | 22 | 0 | 0.0 | 0.0 | 0.00 | 0.00 | 0.00 | 74 | 1009.3 |
| 20260506194532 | 22 | 0 | 0.0 | 0.0 | 0.00 | 0.00 | 0.00 | 73 | 1009.5 |
| 20260506193032 | 22 | 0 | 0.0 | 0.0 | 0.00 | 0.00 | 0.00 | 74 | 1009.4 |
| 20260506191533 | 22 | 0 | 0.0 | 0.0 | 0.00 | 0.00 | 0.00 | 73 | 1009.7 |
| 20260506190035 | 22 | 225 | 0.0 | 17.7 | 0.00 | 0.00 | 0.00 | 74 | 1010.1 |
| 20260506184533 | 21 | 0 | 0.0 | 12.9 | 0.00 | 0.00 | 0.00 | 75 | 1010.0 |
| 20260506183035 | 21 | 0 | 0.0 | 16.1 | 0.00 | 0.00 | 0.00 | 78 | 1010.2 |
| 20260506181537 | 20 | 0 | 0.0 | 11.3 | 0.00 | 0.00 | 0.00 | 78 | 1010.6 |
| 20260506180040 | 20 | 0 | 3.2 | 25.7 | 0.00 | 0.00 | 0.00 | 79 | 1010.7 |
| 20260506174532 | 20 | 0 | 0.0 | 0.0 | 0.00 | 0.00 | 0.00 | 78 | 1010.5 |
| 20260506173032 | 20 | 0 | 1.6 | 22.5 | 0.00 | 0.00 | 0.00 | 77 | 1010.7 |
| 20260506171546 | 20 | 225 | 0.0 | 24.1 | 0.00 | 0.00 | 0.00 | 77 | 1011.1 |
| 20260506170037 | 20 | 0 | 0.0 | 19.3 | 0.00 | 0.00 | 0.00 | 78 | 1011.1 |
| 20260506164537 | 20 | 225 | 1.6 | 19.3 | 0.00 | 0.00 | 0.00 | 74 | 1011.6 |
| 20260506163041 | 21 | 0 | 3.2 | 22.5 | 0.00 | 0.00 | 0.00 | 71 | 1011.9 |
| 20260506161544 | 22 | 0 | 0.0 | 0.0 | 0.00 | 0.00 | 0.00 | 67 | 1012.0 |
| 20260506160031 | 23 | 0 | 0.0 | 12.9 | 0.00 | 0.00 | 0.00 | 64 | 1012.0 |
| 20260506154533 | 23 | 0 | 0.0 | 0.0 | 0.00 | 0.00 | 0.00 | 66 | 1012.2 |
| 20260506153036 | 22 | 0 | 0.0 | 22.5 | 0.00 | 0.00 | 0.00 | 66 | 1011.9 |
| 20260506151534 | 22 | 0 | 0.0 | 1.6 | 0.00 | 0.00 | 0.00 | 67 | 1011.9 |
| 20260506150036 | 22 | 0 | 0.0 | 25.7 | 0.00 | 0.00 | 0.00 | 66 | 1012.1 |
| 20260506144532 | 22 | 0 | 0.0 | 17.7 | 0.00 | 0.00 | 0.00 | 67 | 1011.9 |
| 20260506143034 | 22 | 0 | 0.0 | 0.0 | 0.00 | 0.00 | 0.00 | 65 | 1012.1 |
| 20260506141533 | 22 | 0 | 0.0 | 0.0 | 0.00 | 0.00 | 0.00 | 65 | 1011.9 |
| 20260506140035 | 22 | 0 | 0.0 | 12.9 | 0.00 | 0.00 | 0.00 | 66 | 1012.1 |
| 20260506134606 | 21 | 0 | 3.2 | 24.1 | 0.00 | 0.00 | 0.00 | 68 | 1012.3 |
| 20260506133032 | 21 | 0 | 0.0 | 27.4 | 0.00 | 0.00 | 0.00 | 69 | 1012.4 |
| 20260506131534 | 21 | 225 | 0.0 | 17.7 | 0.00 | 0.00 | 0.00 | 69 | 1012.4 |
| 20260506130032 | 20 | 225 | 0.0 | 25.7 | 0.00 | 0.00 | 0.00 | 72 | 1012.6 |
| 20260506124531 | 20 | 0 | 0.0 | 24.1 | 0.00 | 0.00 | 0.00 | 72 | 1012.7 |
| 20260506123030 | 20 | 0 | 0.0 | 17.7 | 0.00 | 0.00 | 0.00 | 72 | 1012.7 |
| 20260506121536 | 20 | 0 | 0.0 | 1.6 | 0.00 | 0.00 | 0.00 | 74 | 1012.6 |
| 20260506120033 | 18 | 0 | 0.0 | 0.0 | 0.00 | 0.00 | 0.00 | 77 | 1012.6 |
| 20260506114540 | 17 | 0 | 0.0 | 0.0 | 0.00 | 0.00 | 0.00 | 78 | 1012.7 |
| 20260506113036 | 17 | 0 | 0.0 | 0.0 | 0.00 | 0.00 | 0.00 | 78 | 1012.6 |
| 20260506111534 | 17 | 0 | 0.0 | 0.0 | 0.00 | 0.00 | 0.00 | 79 | 1012.5 |
| 20260506110034 | 16 | 0 | 0.0 | 0.0 | 0.00 | 0.00 | 0.00 | 80 | 1012.6 |
| 20260506104534 | 16 | 0 | 0.0 | 0.0 | 0.00 | 0.00 | 0.00 | 81 | 1012.7 |
| 20260506103034 | 16 | 0 | 0.0 | 0.0 | 0.00 | 0.00 | 0.00 | 81 | 1012.9 |
| 20260506101532 | 16 | 0 | 0.0 | 0.0 | 0.00 | 0.00 | 0.00 | 82 | 1012.8 |
| 20260506100035 | 16 | 0 | 0.0 | 0.0 | 0.00 | 0.00 | 0.00 | 81 | 1012.5 |
| 20260506094531 | 16 | 0 | 0.0 | 0.0 | 0.00 | 0.00 | 0.00 | 81 | 1012.5 |
| 20260506093032 | 16 | 0 | 0.0 | 0.0 | 0.00 | 0.00 | 0.00 | 81 | 1012.7 |
| 20260506091532 | 16 | 0 | 0.0 | 0.0 | 0.00 | 0.00 | 0.00 | 82 | 1012.6 |
| 20260506090031 | 16 | 0 | 0.0 | 0.0 | 0.00 | 0.00 | 0.00 | 82 | 1012.7 |
| 20260506084532 | 16 | 0 | 0.0 | 0.0 | 0.00 | 0.00 | 0.00 | 82 | 1012.8 |
| 20260506083034 | 16 | 0 | 0.0 | 0.0 | 0.00 | 0.00 | 0.00 | 82 | 1012.7 |
| 20260506081537 | 16 | 0 | 0.0 | 0.0 | 0.00 | 0.00 | 0.00 | 81 | 1012.9 |
| 20260506073034 | 17 | 0 | 0.0 | 0.0 | 0.00 | 0.00 | 0.00 | 80 | 1012.8 |
| 20260506071534 | 17 | 0 | 0.0 | 0.0 | 0.00 | 0.00 | 0.00 | 80 | 1012.7 |
| 20260506061539 | 17 | 0 | 0.0 | 0.0 | 0.00 | 0.00 | 0.00 | 80 | 1013.0 |
| 20260506044540 | 18 | 0 | 0.0 | 0.0 | 0.00 | 0.00 | 0.00 | 79 | 1013.6 |
| 20260506043038 | 18 | 0 | 0.0 | 0.0 | 0.00 | 0.00 | 0.00 | 79 | 1013.4 |
| 20260506041539 | 18 | 0 | 0.0 | 0.0 | 0.00 | 0.00 | 0.00 | 78 | 1013.4 |
| 20260506040036 | 18 | 0 | 0.0 | 0.0 | 0.00 | 0.00 | 0.00 | 78 | 1013.4 |
| 20260506034535 | 18 | 0 | 0.0 | 0.0 | 0.00 | 0.00 | 0.00 | 77 | 1013.4 |
| 20260506033035 | 18 | 0 | 0.0 | 0.0 | 0.00 | 0.00 | 0.00 | 77 | 1013.4 |
| 20260506031538 | 18 | 0 | 0.0 | 0.0 | 0.00 | 0.00 | 0.00 | 76 | 1013.4 |
| 20260506030032 | 19 | 0 | 0.0 | 0.0 | 0.00 | 0.00 | 0.00 | 75 | 1013.4 |
| 20260506024539 | 19 | 0 | 0.0 | 0.0 | 0.00 | 0.00 | 0.00 | 75 | 1013.4 |
| 20260506023032 | 19 | 0 | 0.0 | 0.0 | 0.00 | 0.00 | 0.00 | 75 | 1013.4 |
| 20260506021532 | 19 | 0 | 0.0 | 1.6 | 0.00 | 0.00 | 0.00 | 74 | 1013.4 |
| 20260506020034 | 19 | 0 | 0.0 | 11.3 | 0.00 | 0.00 | 0.00 | 74 | 1013.3 |
| 20260506014534 | 20 | 0 | 0.0 | 11.3 | 0.00 | 0.00 | 0.00 | 73 | 1013.3 |
| 20260506013033 | 20 | 0 | 0.0 | 3.2 | 0.00 | 0.00 | 0.00 | 73 | 1013.2 |
| 20260506011558 | 20 | 0 | 0.0 | 0.0 | 0.00 | 0.00 | 0.00 | 73 | 1013.0 |